NETSAT-1

Last updated on Thu Sep 24 2026 00:04:05 GMT+0000 (Coordinated Universal Time)

1 46506U 20068W 26266.00568810 .00009605 00000+0 27085-3 0 9991 2 46506 97.8786 273.5559 0005480 42.8674 317.2995 15.36635332330315
UTC large
Height (km)
Speed (km/s)
/
Latitude / Longitude
Inclination (degrees)
Orbital Period (minutes)
Azimuth
Elevation
Range (km)
Doppler Factor

Next 0 passes for location: London (51.5072 / 0.1276)

No passes found over London.
NETSAT-1